TimeEST,TemperatureF,Dew PointF,Humidity,Sea Level PressureIn,VisibilityMPH,Wind Direction,Wind SpeedMPH,Gust SpeedMPH,PrecipitationIn,Events,Conditions,WindDirDegrees,DateUTC
12:15 AM,53.6,51.8,94,29.74,10.0,South,19.6,29.9,N/A,,Overcast,180,2014-01-06 05:15:00
12:35 AM,55.4,51.8,88,29.73,10.0,South,17.3,27.6,N/A,,Overcast,190,2014-01-06 05:35:00
12:55 AM,55.4,53.6,94,29.72,10.0,South,16.1,21.9,N/A,,Overcast,190,2014-01-06 05:55:00
1:15 AM,55.4,53.6,94,29.71,10.0,South,15.0,-,N/A,,Overcast,190,2014-01-06 06:15:00
1:35 AM,55.4,53.6,94,29.69,7.0,South,15.0,24.2,N/A,,Overcast,170,2014-01-06 06:35:00
1:55 AM,55.4,53.6,94,29.68,7.0,South,15.0,-,N/A,,Overcast,180,2014-01-06 06:55:00
2:15 AM,55.4,53.6,94,29.68,4.0,South,13.8,-,N/A,,Overcast,180,2014-01-06 07:15:00
2:35 AM,55.4,51.8,88,29.66,1.2,South,15.0,-,N/A,,Overcast,170,2014-01-06 07:35:00
2:55 AM,55.4,53.6,94,29.65,1.2,South,15.0,21.9,N/A,,Overcast,180,2014-01-06 07:55:00
3:15 AM,53.6,51.8,94,29.64,0.8,South,12.7,-,N/A,,Overcast,170,2014-01-06 08:15:00
3:35 AM,53.6,51.8,94,29.62,0.8,South,13.8,-,N/A,,Overcast,170,2014-01-06 08:35:00
3:55 AM,53.6,50.0,88,29.60,0.8,South,17.3,21.9,N/A,,Overcast,170,2014-01-06 08:55:00
4:15 AM,53.6,51.8,94,29.57,0.8,South,19.6,24.2,N/A,,Overcast,170,2014-01-06 09:15:00
4:35 AM,53.6,51.8,94,29.56,0.5,South,19.6,26.5,N/A,,Overcast,170,2014-01-06 09:35:00
4:55 AM,53.6,51.8,94,29.55,0.5,South,18.4,27.6,N/A,,Overcast,180,2014-01-06 09:55:00
5:15 AM,53.6,51.8,94,29.55,0.5,South,17.3,26.5,N/A,,Overcast,180,2014-01-06 10:15:00
5:35 AM,53.6,50.0,88,29.54,0.5,South,17.3,25.3,N/A,,Overcast,180,2014-01-06 10:35:00
5:55 AM,53.6,51.8,94,29.53,0.8,South,19.6,26.5,N/A,,Overcast,180,2014-01-06 10:55:00
6:15 AM,53.6,51.8,94,29.52,1.5,South,16.1,23.0,N/A,,Overcast,180,2014-01-06 11:15:00
6:35 AM,53.6,50.0,88,29.51,1.0,South,15.0,19.6,N/A,,Overcast,180,2014-01-06 11:35:00
6:55 AM,51.8,50.0,94,29.52,1.2,South,15.0,21.9,N/A,,Overcast,180,2014-01-06 11:55:00
7:15 AM,51.8,50.0,94,29.49,3.0,South,13.8,21.9,0.02,,Overcast,180,2014-01-06 12:15:00
7:35 AM,51.8,50.0,94,29.49,5.0,South,16.1,20.7,0.02,,Overcast,180,2014-01-06 12:35:00
7:55 AM,53.6,51.8,94,29.48,10.0,South,17.3,25.3,0.02,,Overcast,180,2014-01-06 12:55:00
8:15 AM,53.6,51.8,94,29.48,10.0,South,15.0,20.7,N/A,,Overcast,180,2014-01-06 13:15:00
8:35 AM,53.6,51.8,94,29.48,10.0,South,15.0,21.9,N/A,,Overcast,180,2014-01-06 13:35:00
8:55 AM,55.4,51.8,88,29.48,6.0,South,12.7,-,N/A,,Overcast,190,2014-01-06 13:55:00
9:15 AM,51.8,48.2,88,29.55,7.0,West,13.8,21.9,0.14,,Overcast,280,2014-01-06 14:15:00
9:35 AM,46.4,42.8,87,29.56,10.0,WNW,9.2,18.4,0.16,,Overcast,300,2014-01-06 14:35:00
9:55 AM,44.6,42.8,93,29.56,6.0,WNW,8.1,-,0.18,,Overcast,290,2014-01-06 14:55:00
10:15 AM,44.6,41.0,87,29.56,10.0,WNW,8.1,-,N/A,,Overcast,290,2014-01-06 15:15:00
10:35 AM,44.6,41.0,87,29.55,10.0,WNW,6.9,-,0.01,,Overcast,290,2014-01-06 15:35:00
10:55 AM,44.6,41.0,87,29.55,7.0,WNW,8.1,-,0.01,,Overcast,290,2014-01-06 15:55:00
11:15 AM,44.6,39.2,81,29.56,7.0,WNW,11.5,17.3,0.02,,Overcast,300,2014-01-06 16:15:00
11:35 AM,42.8,37.4,81,29.55,7.0,WNW,17.3,26.5,0.04,,Overcast,290,2014-01-06 16:35:00
11:55 AM,41.0,35.6,81,29.55,10.0,WNW,15.0,19.6,0.04,,Overcast,290,2014-01-06 16:55:00
12:15 PM,41.0,37.4,87,29.54,9.0,West,12.7,20.7,N/A,,Overcast,280,2014-01-06 17:15:00
12:35 PM,41.0,35.6,81,29.57,9.0,West,17.3,25.3,0.01,,Overcast,280,2014-01-06 17:35:00
12:55 PM,39.2,35.6,87,29.55,6.0,WNW,12.7,26.5,0.03,,Overcast,300,2014-01-06 17:55:00
1:15 PM,37.4,33.8,87,29.55,10.0,WNW,15.0,25.3,N/A,,Overcast,300,2014-01-06 18:15:00
1:35 PM,37.4,32.0,81,29.58,7.0,WNW,16.1,25.3,0.01,,Overcast,300,2014-01-06 18:35:00
1:55 PM,35.6,30.2,81,29.57,5.0,WNW,11.5,23.0,0.04,,Overcast,300,2014-01-06 18:55:00
2:15 PM,35.6,30.2,81,29.59,5.0,WNW,8.1,17.3,0.01,,Overcast,290,2014-01-06 19:15:00
2:35 PM,35.6,30.2,81,29.59,10.0,WNW,8.1,-,0.02,,Overcast,300,2014-01-06 19:35:00
2:55 PM,35.6,32.0,87,29.59,10.0,WNW,8.1,-,0.02,,Overcast,300,2014-01-06 19:55:00
3:15 PM,37.4,32.0,81,29.60,10.0,West,8.1,-,N/A,,Overcast,280,2014-01-06 20:15:00
3:35 PM,37.4,32.0,81,29.60,10.0,WNW,6.9,-,N/A,,Overcast,290,2014-01-06 20:35:00
3:55 PM,37.4,28.4,70,29.61,10.0,NW,11.5,17.3,N/A,,Overcast,310,2014-01-06 20:55:00
4:15 PM,37.4,26.6,65,29.62,10.0,NW,9.2,19.6,N/A,,Overcast,310,2014-01-06 21:15:00
4:35 PM,35.6,26.6,70,29.63,10.0,WNW,9.2,16.1,N/A,,Overcast,300,2014-01-06 21:35:00
4:55 PM,35.6,24.8,65,29.64,10.0,WNW,13.8,18.4,N/A,,Scattered Clouds,290,2014-01-06 21:55:00
5:15 PM,35.6,24.8,65,29.65,10.0,WNW,11.5,20.7,N/A,,Mostly Cloudy,290,2014-01-06 22:15:00
5:35 PM,35.6,23.0,60,29.67,10.0,WNW,13.8,21.9,N/A,,Overcast,300,2014-01-06 22:35:00
5:55 PM,35.6,21.2,56,29.68,10.0,WNW,15.0,19.6,N/A,,Mostly Cloudy,300,2014-01-06 22:55:00
6:15 PM,35.6,19.4,52,29.70,10.0,NW,13.8,23.0,N/A,,Mostly Cloudy,310,2014-01-06 23:15:00
6:35 PM,35.6,19.4,52,29.72,10.0,WNW,12.7,33.4,N/A,,Overcast,300,2014-01-06 23:35:00
6:55 PM,33.8,17.6,52,29.73,10.0,WNW,13.8,26.5,N/A,,Overcast,300,2014-01-06 23:55:00
7:15 PM,33.8,17.6,52,29.74,10.0,WNW,13.8,24.2,N/A,,Overcast,290,2014-01-07 00:15:00
7:35 PM,33.8,17.6,52,29.75,10.0,WNW,17.3,24.2,N/A,,Scattered Clouds,290,2014-01-07 00:35:00
7:55 PM,33.8,17.6,52,29.75,10.0,WNW,15.0,21.9,N/A,,Clear,300,2014-01-07 00:55:00
8:15 PM,33.8,17.6,52,29.76,10.0,WNW,11.5,19.6,N/A,,Clear,290,2014-01-07 01:15:00
8:35 PM,32.0,14.0,48,29.77,10.0,WNW,18.4,25.3,N/A,,Scattered Clouds,290,2014-01-07 01:35:00
8:55 PM,32.0,14.0,48,29.78,10.0,WNW,18.4,28.8,N/A,,Mostly Cloudy,290,2014-01-07 01:55:00
9:15 PM,30.2,12.2,47,29.79,10.0,West,23.0,34.5,N/A,,Overcast,280,2014-01-07 02:15:00
9:35 PM,28.4,10.4,47,29.81,10.0,West,18.4,32.2,N/A,,Overcast,280,2014-01-07 02:35:00
9:55 PM,26.6,10.4,51,29.83,10.0,West,23.0,31.1,N/A,,Overcast,280,2014-01-07 02:55:00
10:15 PM,24.8,6.8,46,29.85,10.0,WNW,25.3,39.1,N/A,,Overcast,290,2014-01-07 03:15:00
10:35 PM,23.0,3.2,43,29.88,10.0,West,20.7,33.4,N/A,,Overcast,280,2014-01-07 03:35:00
10:55 PM,23.0,5.0,46,29.89,10.0,West,20.7,31.1,N/A,,Overcast,280,2014-01-07 03:55:00
11:15 PM,19.4,-0.4,42,29.91,10.0,West,23.0,34.5,N/A,,Mostly Cloudy,280,2014-01-07 04:15:00
11:35 PM,17.6,-2.2,42,29.93,10.0,WNW,21.9,35.7,N/A,,Partly Cloudy,290,2014-01-07 04:35:00
11:55 PM,17.6,-4.0,38,29.95,10.0,WNW,18.4,36.8,N/A,,Clear,290,2014-01-07 04:55:00